| time (UTC) | temp C | wind direction | speed KPH | gust KPH | rain 1hr cm | rain 24hr cm | rain mn cm | humidity % | barometer mb |
| 20260505214102 | 25 | 237 | 0.0 | 0.0 | 0.00 | 0.03 | 0.03 | 32 | 1004.8 |
| 20260505212604 | 25 | 206 | 0.0 | 0.0 | 0.00 | 0.03 | 0.03 | 32 | 1004.6 |
| 20260505211604 | 25 | 193 | 0.0 | 0.0 | 0.00 | 0.03 | 0.03 | 31 | 1004.6 |
| 20260505211105 | 25 | 219 | 0.0 | 0.0 | 0.00 | 0.03 | 0.03 | 31 | 1004.4 |
| 20260505210605 | 25 | 181 | 0.0 | 0.0 | 0.00 | 0.03 | 0.03 | 31 | 1004.4 |
| 20260505205606 | 25 | 162 | 0.0 | 0.0 | 0.00 | 0.03 | 0.03 | 32 | 1004.3 |
| 20260505205106 | 26 | 237 | 0.0 | 0.0 | 0.00 | 0.03 | 0.03 | 31 | 1004.3 |
| 20260505204607 | 26 | 192 | 0.0 | 0.0 | 0.00 | 0.03 | 0.03 | 31 | 1004.3 |
| 20260505203608 | 26 | 233 | 0.0 | 0.0 | 0.00 | 0.03 | 0.03 | 31 | 1004.4 |
| 20260505202610 | 26 | 230 | 0.0 | 0.0 | 0.00 | 0.03 | 0.03 | 31 | 1004.5 |
| 20260505201609 | 26 | 212 | 0.0 | 0.0 | 0.00 | 0.03 | 0.03 | 31 | 1004.5 |
| 20260505201110 | 26 | 215 | 0.0 | 0.0 | 0.00 | 0.03 | 0.03 | 31 | 1004.6 |
| 20260505200610 | 26 | 164 | 0.0 | 0.0 | 0.00 | 0.03 | 0.03 | 32 | 1004.6 |
| 20260505195611 | 26 | 200 | 0.0 | 0.0 | 0.00 | 0.03 | 0.03 | 32 | 1004.6 |
| 20260505195111 | 26 | 230 | 0.0 | 0.0 | 0.00 | 0.03 | 0.03 | 32 | 1004.6 |
| 20260505194611 | 26 | 200 | 0.0 | 0.0 | 0.00 | 0.03 | 0.03 | 33 | 1004.6 |
| 20260505194111 | 26 | 200 | 0.0 | 0.0 | 0.00 | 0.03 | 0.03 | 33 | 1004.7 |
| 20260505193612 | 26 | 198 | 0.0 | 0.0 | 0.00 | 0.03 | 0.03 | 34 | 1004.7 |
| 20260505193113 | 26 | 200 | 0.0 | 0.0 | 0.00 | 0.03 | 0.03 | 33 | 1004.7 |
| 20260505192613 | 26 | 186 | 0.0 | 0.0 | 0.00 | 0.03 | 0.03 | 32 | 1004.9 |
| 20260505192114 | 26 | 188 | 0.0 | 0.0 | 0.00 | 0.03 | 0.03 | 30 | 1004.9 |
| 20260505191614 | 26 | 243 | 0.0 | 0.0 | 0.00 | 0.03 | 0.03 | 33 | 1004.9 |
| 20260505190215 | 25 | 151 | 0.0 | 0.0 | 0.00 | 0.03 | 0.03 | 36 | 1005.1 |
| 20260505185616 | 26 | 161 | 0.0 | 0.0 | 0.00 | 0.03 | 0.03 | 36 | 1005.2 |
| 20260505184617 | 26 | 176 | 0.0 | 0.0 | 0.00 | 0.03 | 0.03 | 34 | 1005.2 |
| 20260505183617 | 26 | 208 | 0.0 | 0.0 | 0.00 | 0.03 | 0.03 | 32 | 1005.5 |
| 20260505183118 | 26 | 147 | 0.0 | 0.0 | 0.00 | 0.03 | 0.03 | 32 | 1005.5 |
| 20260505182618 | 26 | 179 | 0.0 | 0.0 | 0.00 | 0.03 | 0.03 | 33 | 1005.6 |
| 20260505182119 | 26 | 209 | 0.0 | 0.0 | 0.00 | 0.03 | 0.03 | 32 | 1005.6 |
| 20260505181121 | 26 | 192 | 0.0 | 0.0 | 0.00 | 0.03 | 0.03 | 34 | 1005.7 |
| 20260505180550 | 26 | 213 | 0.0 | 0.0 | 0.00 | 0.03 | 0.03 | 36 | 1005.7 |
| 20260505180153 | 26 | 178 | 0.0 | 0.0 | 0.00 | 0.03 | 0.03 | 38 | 1005.7 |
| 20260505175551 | 25 | 267 | 0.0 | 0.0 | 0.00 | 0.03 | 0.03 | 37 | 1005.9 |
| 20260505175122 | 25 | 254 | 0.0 | 0.0 | 0.00 | 0.03 | 0.03 | 36 | 1005.9 |
| 20260505174552 | 25 | 179 | 0.0 | 0.0 | 0.00 | 0.03 | 0.03 | 38 | 1005.9 |
| 20260505174122 | 25 | 206 | 0.0 | 0.0 | 0.00 | 0.03 | 0.03 | 37 | 1005.9 |
| 20260505173553 | 25 | 198 | 0.0 | 0.0 | 0.00 | 0.03 | 0.03 | 39 | 1005.9 |
| 20260505173053 | 25 | 169 | 0.0 | 0.0 | 0.00 | 0.03 | 0.03 | 39 | 1005.8 |
| 20260505172554 | 25 | 203 | 0.0 | 0.0 | 0.00 | 0.03 | 0.03 | 41 | 1006.0 |
| 20260505172054 | 25 | 210 | 0.0 | 0.0 | 0.00 | 0.03 | 0.03 | 40 | 1006.0 |
| 20260505171555 | 25 | 205 | 0.0 | 0.0 | 0.00 | 0.03 | 0.03 | 41 | 1006.0 |
| 20260505171055 | 25 | 234 | 0.0 | 0.0 | 0.00 | 0.03 | 0.03 | 43 | 1006.2 |
| 20260505170556 | 24 | 192 | 0.0 | 0.0 | 0.00 | 0.03 | 0.03 | 42 | 1006.2 |
| 20260505170156 | 25 | 188 | 0.0 | 0.0 | 0.00 | 0.03 | 0.03 | 43 | 1006.2 |
| 20260505165557 | 24 | 200 | 0.0 | 0.0 | 0.00 | 0.03 | 0.03 | 43 | 1006.6 |
| 20260505165057 | 24 | 213 | 0.0 | 0.0 | 0.00 | 0.03 | 0.03 | 43 | 1006.6 |
| 20260505164557 | 24 | 232 | 0.0 | 0.0 | 0.00 | 0.03 | 0.03 | 42 | 1006.6 |
| 20260505164058 | 24 | 192 | 0.0 | 0.0 | 0.00 | 0.03 | 0.03 | 42 | 1006.5 |
| 20260505163558 | 25 | 134 | 0.0 | 0.0 | 0.00 | 0.03 | 0.03 | 42 | 1006.5 |
| 20260505163059 | 24 | 192 | 0.0 | 0.0 | 0.00 | 0.03 | 0.03 | 43 | 1006.5 |
| 20260505162559 | 24 | 178 | 0.0 | 0.0 | 0.00 | 0.03 | 0.03 | 44 | 1006.7 |
| 20260505162100 | 24 | 175 | 0.0 | 0.0 | 0.00 | 0.03 | 0.03 | 44 | 1006.7 |
| 20260505161559 | 23 | 192 | 0.0 | 0.0 | 0.00 | 0.03 | 0.03 | 45 | 1006.7 |
| 20260505160600 | 23 | 206 | 0.0 | 0.0 | 0.00 | 0.03 | 0.03 | 43 | 1006.8 |
| 20260505153104 | 22 | 222 | 0.0 | 0.0 | 0.00 | 0.03 | 0.03 | 46 | 1007.1 |
| 20260505152604 | 22 | 185 | 0.0 | 0.0 | 0.00 | 0.03 | 0.03 | 48 | 1007.2 |
| 20260505152106 | 22 | 222 | 0.0 | 0.0 | 0.00 | 0.03 | 0.03 | 49 | 1007.2 |
| 20260505151606 | 22 | 150 | 0.0 | 0.0 | 0.00 | 0.03 | 0.03 | 48 | 1007.2 |
| 20260505151105 | 22 | 206 | 0.0 | 0.0 | 0.00 | 0.03 | 0.03 | 48 | 1007.2 |
| 20260505140612 | 20 | 164 | 0.0 | 0.0 | 0.00 | 0.03 | 0.03 | 55 | 1007.7 |
| 20260505124617 | 17 | 216 | 0.0 | 0.0 | 0.00 | 0.03 | 0.03 | 67 | 1007.5 |
| 20260505123118 | 16 | 210 | 0.0 | 0.0 | 0.00 | 0.03 | 0.03 | 70 | 1007.0 |
| 20260505122619 | 16 | 167 | 0.0 | 0.0 | 0.00 | 0.03 | 0.03 | 72 | 1007.0 |
| 20260505122119 | 16 | 199 | 0.0 | 0.0 | 0.00 | 0.03 | 0.03 | 73 | 1007.0 |
| 20260505121620 | 15 | 260 | 0.0 | 0.0 | 0.00 | 0.03 | 0.03 | 75 | 1006.9 |
| 20260505121120 | 15 | 217 | 0.0 | 0.0 | 0.00 | 0.03 | 0.03 | 76 | 1007.1 |
| 20260505120621 | 15 | 172 | 0.0 | 0.0 | 0.00 | 0.03 | 0.03 | 79 | 1007.1 |
| 20260505115552 | 13 | 224 | 0.0 | 0.0 | 0.00 | 0.03 | 0.03 | 86 | 1007.4 |
| 20260505115122 | 13 | 209 | 0.0 | 0.0 | 0.00 | 0.03 | 0.03 | 88 | 1007.5 |
| 20260505114622 | 13 | 210 | 0.0 | 0.0 | 0.00 | 0.03 | 0.03 | 90 | 1007.4 |
| 20260505114123 | 12 | 210 | 0.0 | 0.0 | 0.00 | 0.03 | 0.03 | 91 | 1007.4 |
| 20260505113553 | 12 | 210 | 0.0 | 0.0 | 0.00 | 0.03 | 0.03 | 92 | 1007.4 |
| 20260505113124 | 12 | 210 | 0.0 | 0.0 | 0.03 | 0.03 | 0.03 | 93 | 1007.4 |
| 20260505112555 | 12 | 216 | 0.0 | 0.0 | 0.03 | 0.03 | 0.03 | 94 | 1007.4 |
| 20260505112124 | 12 | 216 | 0.0 | 0.0 | 0.03 | 0.03 | 0.03 | 95 | 1007.4 |
| 20260505111055 | 11 | 216 | 0.0 | 0.0 | 0.03 | 0.03 | 0.03 | 95 | 1006.9 |
| 20260505110556 | 11 | 227 | 0.0 | 0.0 | 0.03 | 0.03 | 0.03 | 95 | 1006.9 |
| 20260505102059 | 12 | 236 | 0.0 | 0.0 | 0.00 | 0.00 | 0.00 | 82 | 1007.3 |
| 20260505101600 | 12 | 236 | 0.0 | 0.0 | 0.00 | 0.00 | 0.00 | 80 | 1007.3 |
| 20260505101100 | 12 | 237 | 0.0 | 0.0 | 0.00 | 0.00 | 0.00 | 79 | 1007.2 |
| 20260505100602 | 11 | 219 | 0.0 | 0.0 | 0.00 | 0.00 | 0.00 | 79 | 1007.2 |
| 20260505095602 | 11 | 161 | 0.0 | 0.0 | 0.00 | 0.00 | 0.00 | 79 | 1007.1 |
| 20260505095102 | 11 | 161 | 0.0 | 0.0 | 0.00 | 0.00 | 0.00 | 79 | 1007.1 |
| 20260505094104 | 11 | 161 | 0.0 | 0.0 | 0.00 | 0.00 | 0.00 | 79 | 1007.0 |
| 20260505093603 | 11 | 161 | 0.0 | 0.0 | 0.00 | 0.00 | 0.00 | 79 | 1007.0 |
| 20260505093104 | 11 | 161 | 0.0 | 0.0 | 0.00 | 0.00 | 0.00 | 79 | 1007.0 |
| 20260505092604 | 11 | 161 | 0.0 | 0.0 | 0.00 | 0.00 | 0.00 | 79 | 1006.6 |
| 20260505092105 | 11 | 226 | 0.0 | 0.0 | 0.00 | 0.00 | 0.00 | 79 | 1006.6 |
| 20260505091605 | 11 | 226 | 0.0 | 0.0 | 0.00 | 0.00 | 0.00 | 79 | 1006.6 |
| 20260505091107 | 11 | 226 | 0.0 | 0.0 | 0.00 | 0.00 | 0.00 | 79 | 1006.5 |
| 20260505090606 | 11 | 226 | 0.0 | 0.0 | 0.00 | 0.00 | 0.00 | 79 | 1006.5 |
| 20260505085606 | 11 | 226 | 0.0 | 0.0 | 0.00 | 0.00 | 0.00 | 80 | 1006.3 |
| 20260505085107 | 11 | 226 | 0.0 | 0.0 | 0.00 | 0.00 | 0.00 | 80 | 1006.3 |
| 20260505084108 | 11 | 226 | 0.0 | 0.0 | 0.00 | 0.00 | 0.00 | 78 | 1006.4 |
| 20260505083608 | 11 | 226 | 0.0 | 0.0 | 0.00 | 0.00 | 0.00 | 77 | 1006.5 |
| 20260505083110 | 11 | 226 | 0.0 | 0.0 | 0.00 | 0.00 | 0.00 | 77 | 1006.5 |
| 20260505082609 | 11 | 226 | 0.0 | 0.0 | 0.00 | 0.00 | 0.00 | 77 | 1006.5 |
| 20260505082109 | 11 | 226 | 0.0 | 0.0 | 0.00 | 0.00 | 0.00 | 77 | 1006.5 |
| 20260505081610 | 11 | 226 | 0.0 | 0.0 | 0.00 | 0.00 | 0.00 | 77 | 1006.5 |
| 20260505081110 | 11 | 226 | 0.0 | 0.0 | 0.00 | 0.00 | 0.00 | 78 | 1006.5 |
| 20260505080610 | 11 | 226 | 0.0 | 0.0 | 0.00 | 0.00 | 0.00 | 78 | 1006.4 |
| 20260505080141 | 11 | 226 | 0.0 | 0.0 | 0.00 | 0.00 | 0.00 | 78 | 1006.4 |
| 20260505075612 | 11 | 226 | 0.0 | 0.0 | 0.00 | 0.00 | 0.00 | 78 | 1006.4 |
| 20260505075112 | 11 | 226 | 0.0 | 0.0 | 0.00 | 0.00 | 0.00 | 78 | 1006.4 |
| 20260505074612 | 11 | 226 | 0.0 | 0.0 | 0.00 | 0.00 | 0.00 | 77 | 1006.5 |
| 20260505074113 | 11 | 226 | 0.0 | 0.0 | 0.00 | 0.00 | 0.00 | 76 | 1006.5 |
| 20260505073614 | 11 | 226 | 0.0 | 0.0 | 0.00 | 0.00 | 0.00 | 76 | 1006.5 |
| 20260505073114 | 11 | 226 | 0.0 | 0.0 | 0.00 | 0.00 | 0.00 | 75 | 1006.5 |
| 20260505072614 | 11 | 226 | 0.0 | 0.0 | 0.00 | 0.00 | 0.00 | 74 | 1006.4 |
| 20260505072115 | 11 | 226 | 0.0 | 0.0 | 0.00 | 0.00 | 0.00 | 73 | 1006.4 |
| 20260505071615 | 11 | 226 | 0.0 | 0.0 | 0.00 | 0.00 | 0.00 | 73 | 1006.4 |
| 20260505071143 | 12 | 0 | 0.0 | 0.0 | 0.00 | 0.00 | 0.00 | 71 | 1006.5 |
| 20260505064110 | 12 | 226 | 0.0 | 0.0 | 0.00 | 0.00 | 0.00 | 69 | 1006.5 |
| 20260505063110 | 12 | 226 | 0.0 | 0.0 | 0.00 | 0.00 | 0.00 | 68 | 1006.5 |
| 20260505062611 | 12 | 226 | 0.0 | 0.0 | 0.00 | 0.00 | 0.00 | 67 | 1006.6 |
| 20260505062111 | 12 | 226 | 0.0 | 0.0 | 0.00 | 0.00 | 0.00 | 67 | 1006.6 |
| 20260505061611 | 12 | 226 | 0.0 | 0.0 | 0.00 | 0.00 | 0.00 | 66 | 1006.6 |
| 20260505061112 | 13 | 226 | 0.0 | 0.0 | 0.00 | 0.00 | 0.00 | 66 | 1006.7 |
| 20260505060613 | 13 | 226 | 0.0 | 0.0 | 0.00 | 0.00 | 0.00 | 65 | 1006.7 |
| 20260505055114 | 13 | 226 | 0.0 | 0.0 | 0.00 | 0.00 | 0.00 | 64 | 1006.7 |
| 20260505054614 | 13 | 229 | 0.0 | 0.0 | 0.00 | 0.00 | 0.00 | 63 | 1006.7 |
| 20260505054115 | 13 | 198 | 0.0 | 0.0 | 0.00 | 0.00 | 0.00 | 63 | 1006.7 |
| 20260505053616 | 13 | 191 | 0.0 | 0.0 | 0.00 | 0.00 | 0.00 | 63 | 1006.7 |
| 20260505053116 | 13 | 202 | 0.0 | 0.0 | 0.00 | 0.00 | 0.00 | 62 | 1006.7 |
| 20260505052616 | 13 | 205 | 0.0 | 0.0 | 0.00 | 0.00 | 0.00 | 61 | 1006.8 |
| 20260505052117 | 13 | 226 | 0.0 | 0.0 | 0.00 | 0.00 | 0.00 | 61 | 1006.8 |
| 20260505051617 | 13 | 209 | 0.0 | 0.0 | 0.00 | 0.00 | 0.00 | 61 | 1006.8 |
| 20260505051117 | 13 | 209 | 0.0 | 0.0 | 0.00 | 0.00 | 0.00 | 61 | 1006.7 |
| 20260505050619 | 13 | 209 | 0.0 | 0.0 | 0.00 | 0.00 | 0.00 | 61 | 1006.7 |
| 20260505050147 | 12 | 209 | 0.0 | 0.0 | 0.00 | 0.00 | 0.00 | 61 | 1006.7 |
| 20260505041552 | 13 | 209 | 0.0 | 0.0 | 0.00 | 0.00 | 0.00 | 57 | 1006.9 |
| 20260505041052 | 13 | 209 | 0.0 | 0.0 | 0.00 | 0.00 | 0.00 | 56 | 1006.8 |
| 20260505040553 | 13 | 209 | 0.0 | 0.0 | 0.00 | 0.00 | 0.00 | 55 | 1006.8 |
| 20260505035555 | 13 | 209 | 0.0 | 0.0 | 0.00 | 0.00 | 0.00 | 55 | 1006.8 |
| 20260505035054 | 13 | 208 | 0.0 | 0.0 | 0.00 | 0.00 | 0.00 | 55 | 1006.8 |
| 20260505034622 | 13 | 209 | 0.0 | 0.0 | 0.00 | 0.00 | 0.00 | 54 | 1006.7 |
| 20260505034054 | 13 | 179 | 0.0 | 0.0 | 0.00 | 0.00 | 0.00 | 54 | 1006.8 |
| 20260505033556 | 13 | 179 | 0.0 | 0.0 | 0.00 | 0.00 | 0.00 | 54 | 1006.8 |
| 20260505033126 | 13 | 179 | 0.0 | 0.0 | 0.00 | 0.00 | 0.00 | 53 | 1006.8 |
| 20260505032626 | 13 | 179 | 0.0 | 0.0 | 0.00 | 0.00 | 0.00 | 53 | 1006.9 |
| 20260505032128 | 13 | 179 | 0.0 | 0.0 | 0.00 | 0.00 | 0.00 | 53 | 1006.9 |
| 20260505031556 | 13 | 179 | 0.0 | 0.0 | 0.00 | 0.00 | 0.00 | 53 | 1006.9 |
| 20260505030558 | 13 | 179 | 0.0 | 0.0 | 0.00 | 0.00 | 0.00 | 53 | 1006.9 |
| 20260505030158 | 13 | 179 | 0.0 | 0.0 | 0.00 | 0.00 | 0.00 | 53 | 1006.9 |
| 20260505025558 | 13 | 179 | 0.0 | 0.0 | 0.00 | 0.00 | 0.00 | 55 | 1006.9 |
| 20260505025059 | 13 | 179 | 0.0 | 0.0 | 0.00 | 0.00 | 0.00 | 56 | 1006.9 |
| 20260505024559 | 13 | 179 | 0.0 | 0.0 | 0.00 | 0.00 | 0.00 | 56 | 1006.9 |
| 20260505024100 | 13 | 179 | 0.0 | 0.0 | 0.00 | 0.00 | 0.00 | 56 | 1007.0 |
| 20260505023600 | 13 | 179 | 0.0 | 0.0 | 0.00 | 0.00 | 0.00 | 55 | 1007.0 |
| 20260505023100 | 13 | 179 | 0.0 | 0.0 | 0.00 | 0.00 | 0.00 | 55 | 1007.0 |
| 20260505022602 | 13 | 179 | 0.0 | 0.0 | 0.00 | 0.00 | 0.00 | 55 | 1007.0 |
| 20260505022101 | 13 | 179 | 0.0 | 0.0 | 0.00 | 0.00 | 0.00 | 52 | 1007.0 |
| 20260505021602 | 14 | 179 | 0.0 | 0.0 | 0.00 | 0.00 | 0.00 | 52 | 1007.0 |
| 20260505021102 | 14 | 179 | 0.0 | 0.0 | 0.00 | 0.00 | 0.00 | 52 | 1007.0 |
| 20260505020603 | 14 | 179 | 0.0 | 0.0 | 0.00 | 0.00 | 0.00 | 51 | 1007.0 |
| 20260505014604 | 15 | 179 | 0.0 | 0.0 | 0.00 | 0.00 | 0.00 | 48 | 1006.9 |
| 20260505014105 | 15 | 179 | 0.0 | 0.0 | 0.00 | 0.00 | 0.00 | 48 | 1006.8 |
| 20260505013605 | 15 | 179 | 0.0 | 0.0 | 0.00 | 0.00 | 0.00 | 47 | 1006.8 |
| 20260505013106 | 15 | 179 | 0.0 | 0.0 | 0.00 | 0.00 | 0.00 | 47 | 1006.8 |
| 20260505012607 | 15 | 179 | 0.0 | 0.0 | 0.00 | 0.00 | 0.00 | 47 | 1006.7 |
| 20260505012106 | 15 | 179 | 0.0 | 0.0 | 0.00 | 0.00 | 0.00 | 47 | 1006.7 |
| 20260505011607 | 15 | 179 | 0.0 | 0.0 | 0.00 | 0.00 | 0.00 | 46 | 1006.7 |
| 20260505011107 | 16 | 179 | 0.0 | 0.0 | 0.00 | 0.00 | 0.00 | 46 | 1006.4 |
| 20260505005608 | 16 | 179 | 0.0 | 0.0 | 0.00 | 0.00 | 0.00 | 44 | 1006.3 |
| 20260505004609 | 16 | 179 | 0.0 | 0.0 | 0.00 | 0.00 | 0.00 | 45 | 1006.4 |
| 20260505004110 | 16 | 178 | 0.0 | 0.0 | 0.00 | 0.00 | 0.00 | 44 | 1006.2 |
| 20260505003610 | 17 | 178 | 0.0 | 0.0 | 0.00 | 0.00 | 0.00 | 44 | 1006.3 |
| 20260505003111 | 17 | 176 | 0.0 | 0.0 | 0.00 | 0.00 | 0.00 | 43 | 1006.3 |
| 20260505002641 | 17 | 178 | 0.0 | 0.0 | 0.00 | 0.00 | 0.00 | 43 | 1006.2 |
| 20260505002111 | 17 | 178 | 0.0 | 0.0 | 0.00 | 0.00 | 0.00 | 43 | 1006.2 |
| 20260505001612 | 17 | 210 | 0.0 | 0.0 | 0.00 | 0.00 | 0.00 | 42 | 1006.2 |
| 20260505001112 | 17 | 206 | 0.0 | 0.0 | 0.00 | 0.00 | 0.00 | 42 | 1005.8 |
| 20260505000613 | 17 | 215 | 0.0 | 0.0 | 0.00 | 0.00 | 0.00 | 42 | 1005.8 |
| 20260504235613 | 18 | 208 | 0.0 | 0.0 | 0.00 | 0.00 | 0.00 | 41 | 1005.7 |
| 20260504235114 | 18 | 193 | 0.0 | 0.0 | 0.00 | 0.00 | 0.00 | 41 | 1005.7 |
| 20260504234615 | 18 | 215 | 0.0 | 0.0 | 0.00 | 0.00 | 0.00 | 40 | 1005.7 |
| 20260504233615 | 18 | 209 | 0.0 | 0.0 | 0.00 | 0.00 | 0.00 | 40 | 1005.5 |
| 20260504233116 | 18 | 182 | 0.0 | 0.0 | 0.00 | 0.00 | 0.00 | 39 | 1005.5 |
| 20260504232616 | 18 | 193 | 0.0 | 0.0 | 0.00 | 0.00 | 0.00 | 38 | 1005.3 |
| 20260504231617 | 19 | 223 | 0.0 | 0.0 | 0.00 | 0.00 | 0.00 | 38 | 1005.3 |
| 20260504231118 | 19 | 152 | 0.0 | 0.0 | 0.00 | 0.00 | 0.00 | 38 | 1005.2 |
| 20260504230618 | 19 | 189 | 0.0 | 0.0 | 0.00 | 0.00 | 0.00 | 38 | 1005.2 |
| 20260504225619 | 20 | 203 | 0.0 | 0.0 | 0.00 | 0.00 | 0.00 | 37 | 1005.0 |
| 20260504225119 | 20 | 186 | 0.0 | 0.0 | 0.00 | 0.00 | 0.00 | 38 | 1005.0 |
| 20260504224620 | 20 | 210 | 0.0 | 0.0 | 0.00 | 0.00 | 0.00 | 37 | 1005.0 |
| 20260504224120 | 20 | 181 | 0.0 | 0.0 | 0.00 | 0.00 | 0.00 | 36 | 1005.1 |
| 20260504222621 | 20 | 189 | 0.0 | 0.0 | 0.00 | 0.00 | 0.00 | 36 | 1005.1 |
| 20260504222122 | 20 | 179 | 0.0 | 0.0 | 0.00 | 0.00 | 0.00 | 36 | 1005.1 |
| 20260504221552 | 20 | 188 | 0.0 | 0.0 | 0.00 | 0.00 | 0.00 | 36 | 1005.1 |
| 20260504221052 | 20 | 217 | 0.0 | 0.0 | 0.00 | 0.00 | 0.00 | 35 | 1005.2 |
| 20260504220622 | 20 | 184 | 0.0 | 0.0 | 0.00 | 0.00 | 0.00 | 35 | 1005.2 |
| 20260504220153 | 20 | 200 | 0.0 | 0.0 | 0.00 | 0.00 | 0.00 | 35 | 1005.2 |
| 20260504215554 | 20 | 206 | 0.0 | 0.0 | 0.00 | 0.00 | 0.00 | 35 | 1005.2 |
| 20260504215054 | 20 | 178 | 0.0 | 0.0 | 0.00 | 0.00 | 0.00 | 35 | 1005.2 |
| 20260504214625 | 20 | 184 | 0.0 | 0.0 | 0.00 | 0.00 | 0.00 | 35 | 1005.2 |